Location: Newark
(13.6797°N, 8.5297°E)
Time: 03:01:48
(UTC+00:00)

A-11 Canister half - Pass Details

Date: 25 January 2020
Orbit: 1517 x 1683 km, 47.2° (Epoch: 16 February)

Event Time Altitude Azimuth Distance (km) Brightness Sun altitude
Rises 22:12:00 0° 251° (WSW) 4,807 11.9 -68.7°
Enters shadow 22:13:55 - 256° (WSW) 4,268 11.6 -69.1°
Reaches altitude 10° 22:15:42 10° 262° (W) 3,795 - -69.5°
Maximum altitude 22:23:42 30° 319° (NW) 2,527 - -71.4°
Drops below altitude 10° 22:31:34 10° 17° (NNE) 3,698 - -73.2°
Sets 22:35:10 0° 28° (NNE) 4,667 - -74.0°
